O'Neill, NE

12:21 AM CST on February 07, 2016 (GMT -0600)
The O'Neill Municipal-Baker

Weather History for KONL - January, 2013

Change the Weather History Date:

Tuesday, January 8, 2013

  Actual Average Record
Temperature  
Mean Temperature 34 °F -  
Max Temperature 49 °F 25 °F 66 °F (2002)
Min Temperature 19 °F 4 °F -23 °F (1988)
Degree Days  
Heating Degree Days 31    
Moisture  
Dew Point 26 °F    
Average Humidity 74    
Maximum Humidity 93    
Minimum Humidity 49    
Precipitation  
Precipitation 0.00 in - - ()
Sea Level Pressure  
Sea Level Pressure 29.87 in    
Wind  
Wind Speed 7 mph (WSW)    
Max Wind Speed 20 mph    
Max Gust Speed 26 mph    
Visibility 10 miles    
Events      
Averages and records for this station are not official NWS values.
T = Trace of Precipitation, MM = Missing Value Source: NWS Daily Summary

Daily Weather History Graph

Daily Weather History Graph

Search for Another Location

Airport or City:

Trip Planner

Search our weather history database for the weather conditions in past years. The results will help you decide how hot, cold, wet, or windy it might be!

Date:

Astronomy

Jan. 08, 2013 Rise Set
Actual Time 8:03 AM CST 5:19 PM CST
Civil Twilight 7:32 AM CST 5:51 PM CST
Nautical Twilight 6:57 AM CST 6:26 PM CST
Astronomical Twilight 6:23 AM CST 7:00 PM CST
Moon 4:38 AM CST (1/8) 2:23 PM CST (1/8)
Length of Visible Light 10h 18m
Length of Day
9h 15m
Waning Crescent, 13% of the Moon is Illuminated
Jan 8
Waning Crescent
Jan 11
New
Jan 18
First Quarter
Jan 26
Full
Feb 3
Last Quarter

Hourly Weather History & Observations

Time (CST) Temp. Windchill Dew Point Humidity Pressure Visibility Wind Dir Wind Speed Gust Speed Precip Events Conditions
12:15 AM 26.2 °F - 22.1 °F 84% 29.90 in 10.0 mi Calm Calm - N/A   Clear
12:35 AM 27.9 °F 24.0 °F 22.6 °F 81% 29.89 in 10.0 mi SSW 3.5 mph - N/A   Clear
12:55 AM 26.8 °F - 21.6 °F 81% 29.88 in 10.0 mi Calm Calm - N/A   Clear
1:15 AM 26.1 °F 20.5 °F 21.6 °F 83% 29.87 in 10.0 mi SSW 4.6 mph - N/A   Clear
1:35 AM 25.0 °F 19.3 °F 21.2 °F 86% 29.86 in 10.0 mi South 4.6 mph - N/A   Clear
1:55 AM 24.4 °F 18.6 °F 20.3 °F 84% 29.85 in 10.0 mi South 4.6 mph - N/A   Clear
2:15 AM 23.5 °F 16.4 °F 19.6 °F 85% 29.84 in 10.0 mi South 5.8 mph - N/A   Clear
2:35 AM 22.8 °F 15.5 °F 19.2 °F 86% 29.84 in 10.0 mi South 5.8 mph - N/A   Clear
2:55 AM 23.2 °F 17.2 °F 19.4 °F 85% 29.83 in 10.0 mi South 4.6 mph - N/A   Clear
3:15 AM 25.2 °F 20.9 °F 20.5 °F 82% 29.83 in 10.0 mi South 3.5 mph - N/A   Clear
3:35 AM 25.2 °F 20.9 °F 20.8 °F 84% 29.82 in 10.0 mi South 3.5 mph - N/A   Clear
3:55 AM 23.9 °F 18.0 °F 20.1 °F 85% 29.81 in 10.0 mi South 4.6 mph - N/A   Clear
4:15 AM 21.9 °F 15.7 °F 18.5 °F 87% 29.81 in 10.0 mi South 4.6 mph - N/A   Clear
4:35 AM 21.6 °F 13.0 °F 18.7 °F 89% 29.80 in 10.0 mi SSE 6.9 mph - N/A   Clear
4:55 AM 20.5 °F 12.8 °F 17.6 °F 89% 29.79 in 10.0 mi SSE 5.8 mph - N/A   Clear
5:15 AM 22.1 °F 14.7 °F 18.9 °F 87% 29.79 in 10.0 mi SSE 5.8 mph - N/A   Clear
5:35 AM 22.5 °F 14.1 °F 19.0 °F 87% 29.77 in 10.0 mi SSE 6.9 mph - N/A   Clear
5:55 AM 21.2 °F 11.7 °F 19.4 °F 93% 29.75 in 10.0 mi SSE 8.1 mph - N/A   Clear
6:15 AM 21.7 °F 12.3 °F 19.4 °F 91% 29.76 in 10.0 mi South 8.1 mph - N/A   Clear
6:35 AM 21.0 °F 9.9 °F 18.7 °F 91% 29.78 in 10.0 mi SSW 10.4 mph - N/A   Clear
6:55 AM 19.8 °F 9.9 °F 17.6 °F 91% 29.79 in 10.0 mi SW 8.1 mph - N/A   Clear
7:15 AM 23.0 °F 13.9 °F 19.4 °F 86% 29.78 in 10.0 mi SSW 8.1 mph - N/A   Clear
7:35 AM 22.8 °F 12.9 °F 20.3 °F 90% 29.76 in 10.0 mi South 9.2 mph - N/A   Clear
7:55 AM 23.5 °F 13.7 °F 20.8 °F 89% 29.75 in 10.0 mi South 9.2 mph - N/A   Clear
8:15 AM 23.7 °F 14.0 °F 21.2 °F 90% 29.75 in 10.0 mi South 9.2 mph - N/A   Clear
8:35 AM 24.6 °F 15.8 °F 22.1 °F 90% 29.75 in 10.0 mi South 8.1 mph - N/A   Clear
8:55 AM 26.1 °F 17.6 °F 23.0 °F 88% 29.76 in 10.0 mi SSW 8.1 mph - N/A   Clear
9:15 AM 27.5 °F 18.6 °F 23.9 °F 86% 29.75 in 10.0 mi SSW 9.2 mph - N/A   Clear
9:35 AM 29.5 °F 21.1 °F 25.2 °F 84% 29.76 in 10.0 mi SW 9.2 mph - N/A   Scattered Clouds
9:55 AM 31.5 °F 23.5 °F 26.4 °F 82% 29.76 in 10.0 mi SW 9.2 mph - N/A   Clear
10:15 AM 35.1 °F 26.4 °F 27.9 °F 75% 29.76 in 10.0 mi WSW 12.7 mph - N/A   Clear
10:35 AM 38.3 °F 30.5 °F 27.5 °F 65% 29.76 in 10.0 mi West 12.7 mph 18.4 mph N/A   Clear
10:55 AM 39.6 °F 32.5 °F 27.0 °F 61% 29.76 in 10.0 mi West 11.5 mph 19.6 mph N/A   Clear
11:15 AM 41.4 °F 33.3 °F 26.2 °F 55% 29.77 in 10.0 mi WNW 16.1 mph 20.7 mph N/A   Clear
11:35 AM 42.8 °F 35.8 °F 25.3 °F 50% 29.76 in 10.0 mi WNW 13.8 mph 23.0 mph N/A   Mostly Cloudy
11:55 AM 43.0 °F 34.5 °F 25.7 °F 51% 29.75 in 10.0 mi WNW 19.6 mph 26.5 mph N/A   Overcast
12:15 PM 43.5 °F 35.2 °F 26.6 °F 51% 29.76 in 10.0 mi WNW 19.6 mph 26.5 mph N/A   Mostly Cloudy
12:35 PM 44.6 °F 37.2 °F 29.3 °F 55% 29.77 in 10.0 mi WNW 17.3 mph 25.3 mph N/A   Clear
12:55 PM 44.2 °F 37.0 °F 29.3 °F 56% 29.78 in 10.0 mi WNW 16.1 mph - N/A   Clear
1:15 PM 45.0 °F 38.5 °F 30.2 °F 56% 29.78 in 10.0 mi WNW 13.8 mph - N/A   Clear
1:35 PM 46.4 °F 40.7 °F 32.0 °F 57% 29.78 in 10.0 mi WNW 12.7 mph - N/A   Clear
1:55 PM 46.9 °F - 31.8 °F 56% 29.79 in 10.0 mi WNW 12.7 mph 17.3 mph N/A   Clear
2:15 PM 47.3 °F - 32.0 °F 55% 29.80 in 10.0 mi WNW 12.7 mph 18.4 mph N/A   Clear
2:35 PM 47.7 °F - 31.6 °F 54% 29.81 in 10.0 mi WNW 12.7 mph 17.3 mph N/A   Clear
2:55 PM 48.9 °F - 31.6 °F 51% 29.83 in 10.0 mi WNW 11.5 mph - N/A   Clear
3:15 PM 49.6 °F - 31.3 °F 49% 29.84 in 10.0 mi NW 10.4 mph - N/A   Scattered Clouds
3:35 PM 48.7 °F - 31.5 °F 51% 29.85 in 10.0 mi WNW 5.8 mph - N/A   Clear
3:55 PM 49.6 °F - 31.8 °F 50% 29.87 in 10.0 mi West 3.5 mph - N/A   Clear
4:15 PM 49.5 °F - 31.5 °F 50% 29.87 in 10.0 mi West 4.6 mph - N/A   Clear
4:35 PM 47.8 °F - 31.1 °F 52% 29.88 in 10.0 mi West 4.6 mph - N/A   Clear
4:55 PM 47.3 °F - 31.1 °F 53% 29.89 in 10.0 mi Calm Calm - N/A   Clear
5:15 PM 44.1 °F 40.1 °F 30.4 °F 59% 29.91 in 10.0 mi NW 6.9 mph - N/A   Clear
5:35 PM 43.3 °F 38.1 °F 30.4 °F 60% 29.92 in 10.0 mi NW 9.2 mph - N/A   Clear
5:55 PM 38.8 °F 33.2 °F 29.8 °F 70% 29.93 in 10.0 mi NW 8.1 mph - N/A   Clear
6:15 PM 38.8 °F 33.8 °F 30.0 °F 71% 29.95 in 10.0 mi NW 6.9 mph - N/A   Clear
6:35 PM 40.3 °F 35.5 °F 30.4 °F 68% 29.96 in 10.0 mi WNW 6.9 mph - N/A   Clear
6:55 PM 39.2 °F 33.6 °F 30.2 °F 70% 29.97 in 10.0 mi WNW 8.1 mph - N/A   Scattered Clouds
7:15 PM 38.8 °F 33.8 °F 29.8 °F 70% 29.98 in 10.0 mi West 6.9 mph - N/A   Clear
7:35 PM 36.0 °F 31.1 °F 29.3 °F 77% 29.99 in 10.0 mi West 5.8 mph - N/A   Scattered Clouds
7:55 PM 35.6 °F 30.7 °F 29.1 °F 77% 30.00 in 10.0 mi West 5.8 mph - N/A   Scattered Clouds
8:15 PM 35.1 °F 29.3 °F 29.3 °F 80% 30.01 in 10.0 mi West 6.9 mph - N/A   Scattered Clouds
8:35 PM 35.1 °F 28.6 °F 29.3 °F 80% 30.03 in 10.0 mi WSW 8.1 mph - N/A   Scattered Clouds
8:55 PM 34.2 °F 26.8 °F 28.4 °F 79% 30.04 in 10.0 mi West 9.2 mph - N/A   Scattered Clouds
9:15 PM 34.9 °F 27.7 °F 28.4 °F 77% 30.04 in 10.0 mi West 9.2 mph - N/A   Scattered Clouds
9:35 PM 34.0 °F 28.0 °F 27.7 °F 78% 30.05 in 10.0 mi West 6.9 mph - N/A   Clear
9:55 PM 33.8 °F 26.4 °F 27.9 °F 79% 30.06 in 10.0 mi West 9.2 mph - N/A   Clear
10:15 PM 33.8 °F 26.4 °F 27.5 °F 78% 30.07 in 10.0 mi West 9.2 mph - N/A   Clear
10:35 PM 34.0 °F 26.6 °F 27.7 °F 78% 30.08 in 10.0 mi West 9.2 mph - N/A   Clear
10:55 PM 33.1 °F 25.5 °F 27.5 °F 80% 30.10 in 10.0 mi West 9.2 mph - N/A   Scattered Clouds
11:15 PM 34.2 °F 26.2 °F 28.0 °F 78% 30.12 in 10.0 mi WNW 10.4 mph - N/A   Clear
11:35 PM 33.8 °F 27.0 °F 26.6 °F 75% 30.13 in 10.0 mi West 8.1 mph - N/A   Clear
11:55 PM 32.5 °F 25.5 °F 27.1 °F 80% 30.14 in 10.0 mi West 8.1 mph - N/A   Clear